This is the latest recevied weather packets stored in our database for station/object DO0SOB-11. If no packets are shown the sender has not sent any weather packets the latest 10 day(s).
| Time | Temp. | Humidity | Pressure | Rain* | Wind** | Luminosity | Snow |
|---|---|---|---|---|---|---|---|
| 1777619669 | 14.44° C | 64% | 988.2 hPa | - | - | - | - |
| 1777618769 | 14.44° C | 65% | 988.3 hPa | - | - | - | - |
| 1777617869 | 13.89° C | 68% | 988.2 hPa | - | - | - | - |
| 1777616968 | 13.33° C | 72% | 988.4 hPa | - | - | - | - |
| 1777616068 | 13.33° C | 76% | 988.3 hPa | - | - | - | - |
| 1777615168 | 13.33° C | 80% | 988.4 hPa | - | - | - | - |
| 1777614268 | 11.11° C | 99% | 988.3 hPa | - | - | - | - |
| 1777613368 | 10.56° C | 99% | 988.3 hPa | - | - | - | - |
| 1777612468 | 10° C | 100% | 988.1 hPa | - | - | - | - |
| 1777611568 | 9.44° C | 100% | 988.1 hPa | - | - | - | - |
| 1777610668 | 8.89° C | 100% | 988.1 hPa | - | - | - | - |
| 1777609768 | 8.89° C | 100% | 988.1 hPa | - | - | - | - |
| 1777608868 | 8.89° C | 100% | 987.9 hPa | - | - | - | - |
| 1777607968 | 8.89° C | 100% | 987.8 hPa | - | - | - | - |
| 1777607068 | 8.33° C | 100% | 987.8 hPa | - | - | - | - |
| 1777606168 | 8.33° C | 100% | 987.8 hPa | - | - | - | - |
| 1777605268 | 7.78° C | 100% | 987.8 hPa | - | - | - | - |
| 1777604367 | 7.78° C | 100% | 987.9 hPa | - | - | - | - |
| 1777603467 | 8.33° C | 100% | 988 hPa | - | - | - | - |
| 1777602567 | 8.33° C | 100% | 988.2 hPa | - | - | - | - |
| 1777599867 | 8.33° C | 100% | 988 hPa | - | - | - | - |
| 1777598967 | 8.33° C | 100% | 988.1 hPa | - | - | - | - |
| 1777598067 | 8.33° C | 100% | 988.2 hPa | - | - | - | - |
| 1777597167 | 7.78° C | 100% | 988.4 hPa | - | - | - | - |
| 1777596267 | 8.33° C | 100% | 988.5 hPa | - | - | - | - |
* Rain since midnight (hover to see other rain measurements)
** Current wind speed in m/s (hover to see current wind gust speed)